Fort Pierce, FL

2:42 PM EST on February 23, 2017 (GMT -0500)
Saint Lucie County International

Weather History for KFPR - August, 2014

Change the Weather History Date:

Monday, August 11, 2014

  Actual Average Record
Temperature  
Mean Temperature 83 °F -  
Max Temperature 93 °F 90 °F 96 °F (1940)
Min Temperature 73 °F 71 °F 68 °F (1989)
Cooling Degree Days 18    
Growing Degree Days 33 (Base 50)    
Moisture  
Dew Point 71 °F    
Average Humidity 74    
Maximum Humidity 91    
Minimum Humidity 42    
Precipitation  
Precipitation 0.07 in - - ()
Sea Level Pressure  
Sea Level Pressure 30.03 in    
Wind  
Wind Speed 3 mph (WSW)    
Max Wind Speed 15 mph    
Max Gust Speed 17 mph    
Visibility 9 miles    
Events Rain , Thunderstorm    
Averages and records for this station are not official NWS values.
T = Trace of Precipitation, MM = Missing Value Source: NWS Daily Summary

Daily Weather History Graph

Daily Weather History Graph

Search for Another Location

Airport or City:

Trip Planner

Search our weather history database for the weather conditions in past years. The results will help you decide how hot, cold, wet, or windy it might be!

Date:

Astronomy

Aug. 11, 2014 Rise Set
Actual Time 6:50 AM EDT 8:02 PM EDT
Civil Twilight 6:25 AM EDT 8:27 PM EDT
Nautical Twilight 5:56 AM EDT 8:56 PM EDT
Astronomical Twilight 5:25 AM EDT 9:26 PM EDT
Moon 8:43 PM EDT (8/11) 7:43 AM EDT (8/11)
Length of Visible Light 14h 01m
Length of Day
13h 12m
Full, 99% of the Moon is Illuminated
Aug 11
Full
Aug 17
Last Quarter
Aug 25
New
Sep 2
First Quarter
Sep 8
Full

Hourly Weather History & Observations

Time (EDT) Temp. Heat Index Dew Point Humidity Pressure Visibility Wind Dir Wind Speed Gust Speed Precip Events Conditions
12:53 AM 75.0 °F - 72.0 °F 90% 30.05 in 10.0 mi Calm Calm - 0.00 in Rain Light Rain
1:53 AM 73.9 °F - 71.1 °F 91% 30.04 in 10.0 mi Calm Calm - 0.00 in Rain Light Rain
2:53 AM 75.0 °F - 72.0 °F 90% 30.02 in 10.0 mi SW 4.6 mph - 0.00 in Rain Light Rain
3:53 AM 73.9 °F - 71.1 °F 91% 30.02 in 10.0 mi Calm Calm - 0.00 in Rain Light Rain
4:53 AM 73.0 °F - 70.0 °F 90% 30.01 in 10.0 mi WNW 3.5 mph - 0.00 in Rain Light Rain
5:53 AM 73.0 °F - 70.0 °F 90% 30.01 in 10.0 mi Calm Calm - 0.00 in Rain Light Rain
6:53 AM 73.0 °F - 70.0 °F 90% 30.03 in 10.0 mi Calm Calm - 0.00 in Rain Light Rain
7:53 AM 75.9 °F - 72.0 °F 87% 30.04 in 10.0 mi Calm Calm - 0.00 in   Clear
8:53 AM 81.0 °F 86.7 °F 75.0 °F 82% 30.05 in 10.0 mi WSW 3.5 mph - N/A   Clear
9:53 AM 84.9 °F 91.4 °F 73.0 °F 67% 30.06 in 10.0 mi WSW 5.8 mph - N/A   Clear
10:53 AM 88.0 °F 94.7 °F 72.0 °F 59% 30.07 in 10.0 mi SW 6.9 mph - N/A   Clear
11:53 AM 88.0 °F 93.8 °F 71.1 °F 57% 30.07 in 10.0 mi SW 8.1 mph - N/A   Clear
12:53 PM 91.0 °F 95.2 °F 68.0 °F 47% 30.05 in 10.0 mi SSW 9.2 mph 17.3 mph N/A   Partly Cloudy
1:53 PM 91.9 °F 96.9 °F 69.1 °F 47% 30.04 in 10.0 mi WSW 9.2 mph - N/A   Clear
2:53 PM 93.0 °F 96.4 °F 66.9 °F 42% 30.01 in 10.0 mi WSW 9.2 mph - N/A   Clear
3:53 PM 91.0 °F 96.6 °F 70.0 °F 50% 29.99 in 10.0 mi Variable 5.8 mph - N/A   Scattered Clouds
4:53 PM 93.0 °F 97.9 °F 69.1 °F 45% 29.99 in 10.0 mi West 5.8 mph - N/A   Clear
5:53 PM 91.0 °F 96.6 °F 70.0 °F 50% 29.98 in 10.0 mi SW 4.6 mph - N/A   Partly Cloudy
6:53 PM 84.0 °F 91.2 °F 73.9 °F 72% 30.00 in 10.0 mi NNE 5.8 mph - N/A   Overcast
7:07 PM 84.9 °F 92.1 °F 73.9 °F 69% 30.00 in 10.0 mi NNE 4.6 mph - N/A Thunderstorm Overcast
7:27 PM 82.0 °F 86.3 °F 71.1 °F 69% 30.01 in 10.0 mi West 15.0 mph - N/A   Overcast
7:53 PM 78.1 °F - 73.0 °F 84% 30.02 in 3.0 mi SW 12.7 mph - 0.02 in Rain Light Rain
8:15 PM 77.0 °F - 72.0 °F 84% 30.02 in 3.0 mi West 4.6 mph - 0.01 in Rain , Thunderstorm Light Rain
8:31 PM 75.9 °F - 71.1 °F 85% 30.01 in 3.0 mi NW 4.6 mph - 0.05 in Rain Light Rain
8:53 PM 75.9 °F - 72.0 °F 87% 30.02 in 3.0 mi Calm Calm - 0.05 in   Mostly Cloudy
9:53 PM 77.0 °F - 72.0 °F 84% 30.02 in 10.0 mi Calm Calm - N/A   Partly Cloudy
10:53 PM 75.9 °F - 72.0 °F 87% 30.04 in 10.0 mi Calm Calm - N/A   Clear
11:53 PM 77.0 °F - 72.0 °F 84% 30.04 in 10.0 mi Calm Calm - N/A   Clear